Home > Weather > Tarnów > Past weeks

Flag for Poland Past Weather in Tarnów, Poland — Yesterday and Last 2 Weeks

Now
78 °F

Warm.


Feels Like: 80 °F
Forecast: 66 / 82 °F
Wind: 1 mph from Northwest

Location: Tarnow

Current Time: Jul 27, 2016 at 11:41:37 AM

Latest Report: Jul 27, 2016 at 11:00 AM


Visibility: 10 mi

Pressure: 30.02 "Hg

Humidity: 65%

Dew Point: 65 °F

Location of TarnówLocation

Past Weather in Tarnów — Graph

°F

Tarnów Temperature Yesterday

Maximum temperature yesterday: 87 °F (at 3:00 PM)
Minimum temperature yesterday: 65 °F (at 4:00 AM)
Average temperature yesterday: 73 °F

High & Low Weather Summary for the Past Weeks

 TemperatureHumidityPressure
High87 °F (Jul 26, 3:00 PM)97% (Jul 20, 6:00 AM)30.19 "Hg (Jul 20, 6:00 AM)
Low50 °F (Jul 21, 5:00 AM)32% (Jul 21, 5:00 PM)29.61 "Hg (Jul 14, 2:00 PM)
Average66 °F75%30.01 "Hg
* Reported Jul 12 10:00 AM — Jul 27 10:00 AM, Tarnów, Weather by CustomWeather, © 2016

Note: Actual official high and low records may vary slightly from our data, if they occured in-between our weather recording intervals... More about our weather records

Advertising

Tarnów Weather History for the Previous 24 Hours

Scroll right to see more
 ConditionsComfort  
Time TempWeatherWind HumidityBarometerVisibility
10:00 AM
Wed, Jul 27
76 °FMild.1 mph68%30.02 "Hg12 mi
9:00 AM73 °FFog.1 mph79%30.02 "Hg4 mi
8:00 AM70 °FFog.1 mph84%30.04 "Hg4 mi
7:00 AM66 °FFog.1 mph92%30.05 "Hg7 mi
6:00 AM63 °FFog.1 mph95%30.05 "Hg2 mi
5:00 AM63 °FFog.1 mph93%30.04 "Hg2 mi
4:00 AM64 °FFog.1 mph94%30.04 "Hg2 mi
3:00 AM66 °FFog.1 mph94%30.04 "Hg3 mi
2:00 AM66 °FFog.No wind92%30.03 "Hg2 mi
1:00 AM67 °FFog.No wind91%30.03 "Hg4 mi
12:00 AM68 °FMild.1 mph89%30.04 "Hg3 mi
11:00 PM
Tue, Jul 26
70 °FLight rain. Overcast.No wind86%30.04 "Hg7 mi
10:00 PM70 °FMild.1 mph85%30.05 "Hg8 mi
9:00 PM71 °FMild.No wind81%30.03 "Hg9 mi
8:00 PM73 °FMild.1 mph77%30.01 "Hg8 mi
7:00 PM74 °FMild.1 mph80%30.01 "Hg7 mi
6:00 PM73 °FMild.1 mph85%29.99 "Hg6 mi
5:00 PM72 °FLight rain. Cloudy.2 mph77%29.98 "Hg2 mi
4:00 PM86 °FWarm.3 mph42%29.95 "Hg12 mi
3:00 PM87 °FWarm.1 mph43%29.95 "Hg14 mi
2:00 PM84 °FWarm.1 mph49%29.97 "Hg12 mi
1:00 PM83 °FWarm.2 mph51%29.98 "Hg11 mi
12:00 PM79 °FWarm.1 mph66%30.01 "Hg7 mi
11:00 AM77 °FWarm.1 mph69%30.01 "Hg8 mi
Weather by CustomWeather, © 2016

See weather overviewHow to use our weather pages